TimeCST,TemperatureF,Dew PointF,Humidity,Sea Level PressureIn,VisibilityMPH,Wind Direction,Wind SpeedMPH,Gust SpeedMPH,PrecipitationIn,Events,Conditions,WindDirDegrees,DateUTC
12:56 AM,27.1,23.0,84,30.16,6.0,South,4.6,-,0.00,Snow,Light Snow,170,2013-03-03 06:56:00
1:36 AM,26.6,23.0,86,30.10,6.0,Calm,Calm,-,0.00,Snow,Light Snow,0,2013-03-03 07:36:00
2:02 AM,26.6,24.8,93,30.10,1.2,Calm,Calm,-,0.00,Snow,Light Snow,0,2013-03-03 08:02:00
2:12 AM,26.6,24.8,93,30.09,2.0,Calm,Calm,-,0.00,Snow,Light Snow,0,2013-03-03 08:12:00
2:23 AM,26.6,24.8,93,30.09,1.8,SSW,4.6,-,0.00,Snow,Light Snow,210,2013-03-03 08:23:00
2:38 AM,24.8,23.0,93,30.09,2.0,South,4.6,-,0.00,Snow,Light Snow,180,2013-03-03 08:38:00
2:45 AM,24.8,23.0,93,30.09,3.0,SSW,4.6,-,0.00,Snow,Light Snow,200,2013-03-03 08:45:00
2:56 AM,25.2,23.0,91,30.14,2.0,SSW,6.9,-,0.00,Snow,Light Snow,200,2013-03-03 08:56:00
3:05 AM,24.8,23.0,93,30.09,1.5,SSW,8.1,-,0.00,Snow,Light Snow,200,2013-03-03 09:05:00
3:17 AM,24.8,23.0,93,30.09,2.0,SSW,5.8,-,0.00,Snow,Light Snow,210,2013-03-03 09:17:00
3:35 AM,24.8,23.0,93,30.09,1.5,SSW,3.5,-,0.00,Snow,Light Snow,200,2013-03-03 09:35:00
3:39 AM,24.8,23.0,93,30.09,2.5,Calm,Calm,-,0.00,Snow,Light Snow,0,2013-03-03 09:39:00
3:44 AM,24.8,23.0,93,30.09,6.0,Calm,Calm,-,0.00,Snow,Light Snow,0,2013-03-03 09:44:00
3:56 AM,25.2,23.0,91,30.14,10.0,Calm,Calm,-,0.00,,Overcast,0,2013-03-03 09:56:00
4:56 AM,22.1,21.0,96,30.14,9.0,Calm,Calm,-,0.00,,Overcast,0,2013-03-03 10:56:00
5:56 AM,25.2,23.0,91,30.15,2.5,SE,6.9,-,0.00,Snow,Light Snow,130,2013-03-03 11:56:00
6:05 AM,24.8,21.2,86,30.10,3.0,SE,5.8,-,0.00,Snow,Light Snow,130,2013-03-03 12:05:00
6:56 AM,26.1,23.0,88,30.15,10.0,SE,4.6,-,0.00,,Overcast,130,2013-03-03 12:56:00
7:33 AM,26.6,21.2,80,30.11,2.0,SE,6.9,-,0.00,Snow,Light Snow,140,2013-03-03 13:33:00
7:56 AM,26.1,22.1,85,30.17,4.0,SE,6.9,-,0.00,Snow,Light Snow,140,2013-03-03 13:56:00
8:56 AM,29.1,19.0,66,30.16,10.0,SSE,5.8,-,0.00,,Overcast,150,2013-03-03 14:56:00
9:56 AM,29.1,19.0,66,30.17,10.0,ESE,8.1,-,N/A,,Overcast,120,2013-03-03 15:56:00
10:56 AM,30.0,21.0,69,30.17,10.0,SE,5.8,-,0.00,,Overcast,140,2013-03-03 16:56:00
11:56 AM,30.0,23.0,75,30.15,7.0,ESE,10.4,-,0.00,Snow,Light Snow,120,2013-03-03 17:56:00
12:04 PM,30.2,23.0,75,30.10,10.0,SE,9.2,-,0.00,Snow,Light Snow,140,2013-03-03 18:04:00
12:40 PM,30.2,21.2,69,30.09,10.0,ESE,10.4,-,0.00,,Overcast,110,2013-03-03 18:40:00
12:56 PM,30.0,22.1,72,30.14,10.0,East,5.8,-,0.00,,Overcast,100,2013-03-03 18:56:00
1:17 PM,32.0,21.2,64,30.09,10.0,ESE,12.7,-,N/A,,Overcast,120,2013-03-03 19:17:00
1:56 PM,32.9,22.1,65,30.14,10.0,ESE,11.5,18.4,N/A,,Mostly Cloudy,120,2013-03-03 19:56:00
2:56 PM,32.9,20.1,59,30.14,10.0,SE,8.1,-,N/A,,Mostly Cloudy,130,2013-03-03 20:56:00
3:56 PM,34.0,19.0,54,30.13,10.0,SSE,6.9,-,N/A,,Mostly Cloudy,150,2013-03-03 21:56:00
4:56 PM,32.9,19.0,57,30.14,10.0,SE,6.9,-,N/A,,Clear,130,2013-03-03 22:56:00
5:56 PM,30.0,21.0,69,30.14,10.0,Calm,Calm,-,N/A,,Clear,0,2013-03-03 23:56:00
6:56 PM,25.2,20.1,81,30.15,10.0,Calm,Calm,-,N/A,,Clear,0,2013-03-04 00:56:00
7:56 PM,21.0,19.0,92,30.16,10.0,Calm,Calm,-,N/A,,Clear,0,2013-03-04 01:56:00
8:56 PM,19.0,17.1,92,30.17,10.0,Calm,Calm,-,N/A,,Clear,0,2013-03-04 02:56:00
9:56 PM,19.0,18.1,96,30.16,10.0,Calm,Calm,-,N/A,,Clear,0,2013-03-04 03:56:00
10:56 PM,17.1,15.1,92,30.17,10.0,Calm,Calm,-,N/A,,Clear,0,2013-03-04 04:56:00
11:56 PM,19.0,17.1,92,30.17,10.0,Calm,Calm,-,N/A,,Clear,0,2013-03-04 05:56:00